Weather in Berezovskiy

Russia / Chelyabinsk Oblast     54°06′59″N   62°49′13″E
temp.,
°C
wind,
m/s
gust,
m/s
humid.,
%
clouds,
%
prec.,
mm/h
press.,
hPa
HPBL,
m
10 may, mon
mon1023:00+15ne71552100 0.1 1016800
02:00+14ne51254100 0.0 1017426
05:00+12n510617 0.0 1018229
08:00+15ne6104824 0.0 1019621
11:00+19ne78375 0.0 10191438
14:00+21ene78297 0.0 10201862
17:00+20ene772711 0.0 10211900
20:00+17ene483310 0.0 1022249
11 may, tue
tue1123:00+13ne410415 0.0 1024193
02:00+10ene33485 0.0 102544
05:00+9ene34513 0.0 102645
08:00+14ene34405 0.0 1027339
11:00+18ene33280 0.0 10281574
14:00+20ene22231 0.0 10281916
17:00+21ne2122100 0.0 10282042
20:00+18ne2230100 0.0 102830
12 may, wed
wed1223:00+16se2232100 0.0 102817
02:00+15ssw223734 0.0 102914
05:00+12wsw22420 0.0 102914
08:00+17wnw22330 0.0 1029253
11:00+22wnw33225 0.0 10291672
14:00+24nw33185 0.0 10272128
17:00+25nnw33200 0.0 10272379
20:00+22nw333330 0.0 102628
13 may, thu
thu1323:00+20n354053 0.0 1027118
02:00+17ne335072 0.0 102744
05:00+15ne335799 0.0 102840
08:00+19nne2346100 0.0 1028289
11:00+23nne343476 0.0 10281515
14:00+26n342990 0.0 10262323
17:00+26nnw452836 0.0 10262536
20:00+23n343916 0.0 102653
14 may, fri
fri1423:00+20ne22476 0.0 102613
02:00+18sse11526 0.0 102611
05:00+17wsw115642 0.0 102711
08:00+22w224318 0.0 1028251
11:00+26w233017 0.0 10272174
14:00+28w33255 0.0 10252870
17:00+29w352310 0.0 10243112
20:00+27w2330100 0.0 102352